This demonstration page uses our WeatherBlox Daily Observations layout. Learn more.

Left ArrowRight Arrow

Hourly Observations for September 6, 2018

Temp ( °F °C ) Dew Point ( °F °C ) Humidity (%) Winds ( mph kmh ) Pressure ( in mb ) Visibility ( mi km ) Precip ( " mm )
12:53 am 00:53 Cloudy 65 18.3 63 17.2 93 93 NE 9 15 30.29 1026 10 16 0.00 0.00
1:53 am 01:53 Cloudy 64 17.8 61 16.1 90 90 NNE 12 19 30.29 1026 10 16 0.00 0.00
2:08 am 02:08 Cloudy 64 17.8 61 16.1 90 90 NNE 9 15 30.27 1025 10 16 0.00 0.00
2:53 am 02:53 Cloudy 64 17.8 60 15.6 87 87 NNE 10 17 30.28 1026 10 16 0.00 0.00
3:53 am 03:53 Cloudy 62 16.7 58 14.4 86 86 NNE 9 15 30.29 1026 10 16 0.00 0.00
4:17 am 04:17 Cloudy 63 17 57 14 83 83 NNE 9 15 30.30 1026 10 16 0.00 0.00
4:53 am 04:53 Cloudy 62 16.7 57 13.9 84 84 NE 10 17 30.28 1026 10 16 0.00 0.00
5:29 am 05:29 Cloudy 61 16 57 14 88 88 NNE 9 15 30.27 1025 10 16 0.00 0.00
5:53 am 05:53 Mostly Cloudy 59 15 56 13.3 90 90 NNE 8 13 30.29 1026 10 16 0.00 0.00
6:07 am 06:07 Partly Cloudy 58 14.4 56 13.3 93 93 NNE 8 13 30.27 1025 10 16 0.00 0.00
6:53 am 06:53 Mostly Cloudy 58 14.4 56 13.3 93 93 NE 6 9 30.30 1026 10 16 0.00 0.00
7:29 am 07:29 Cloudy 58 14.4 56 13.3 93 93 NNE 7 11 30.30 1026 10 16 0.00 0.00
7:36 am 07:36 Cloudy 57 14 55 13 94 94 NNE 9 15 30.30 1026 10 16 0.00 0.00
7:53 am 07:53 Cloudy 58 14.4 56 13.3 93 93 NE 9 15 30.31 1026 10 16 0.00 0.00
8:53 am 08:53 Cloudy 58 14.4 56 13.3 93 93 NE 10 17 30.32 1027 10 16 0.00 0.00
9:16 am 09:16 Cloudy 57 14 57 14 100 100 ENE 9 15 30.33 1027 10 16 0.00 0.00
9:53 am 09:53 Cloudy 60 15.6 57 13.9 90 90 NNE 8 13 30.33 1027 10 16 0.00 0.00
10:53 am 10:53 Cloudy 60 15.6 58 14.4 93 93 NE 7 11 30.33 1027 10 16 0.00 0.00
11:27 am 11:27 Cloudy 61 16.1 59 15 93 93 NE 9 15 30.33 1027 10 16 0.00 0.00
11:53 am 11:53 Cloudy 61 16.1 59 15 93 93 NNE 10 17 30.32 1027 10 16 0.00 0.00
12:13 pm 12:13 Cloudy 63 17 59 15 88 88 NNE 12 19 30.30 1026 10 16 0.00 0.00
12:53 pm 12:53 Cloudy 64 17.8 61 16.1 90 90 NE 9 15 30.30 1026 10 16 0.00 0.00
1:05 pm 13:05 Mostly Cloudy 65 18.3 61 16.1 87 87 NE 10 17 30.27 1025 10 16 0.00 0.00
1:53 pm 13:53 Cloudy 65 18.3 62 16.7 90 90 NE 8 13 30.28 1025 10 16 0.00 0.00
2:53 pm 14:53 Cloudy 65 18.3 62 16.7 90 90 ENE 7 11 30.27 1025 10 16 0.00 0.00
3:53 pm 15:53 Cloudy 66 18.9 63 17.2 90 90 NE 7 11 30.24 1024 10 16 0.00 0.00
4:53 pm 16:53 Cloudy 67 19.4 63 17.2 87 87 E 7 11 30.23 1024 10 16 0.00 0.00
5:53 pm 17:53 Cloudy 68 20 64 17.8 87 87 ENE 6 9 30.22 1023 10 16 0.00 0.00
6:53 pm 18:53 Cloudy 67 19.4 64 17.8 91 91 ENE 9 15 30.22 1023 10 16 0.00 0.00
7:53 pm 19:53 Cloudy 70 21.1 63 17.2 79 79 E 9 15 30.21 1023 10 16 0.00 0.00
8:53 pm 20:53 Cloudy 69 20.6 64 17.8 84 84 E 6 9 30.22 1023 10 16 0.00 0.00
9:53 pm 21:53 Cloudy 69 20.6 64 17.8 84 84 E 7 11 30.24 1024 10 16 0.00 0.00
10:53 pm 22:53 Cloudy 68 20 64 17.8 87 87 ENE 6 9 30.24 1024 10 16 0.00 0.00
11:38 pm 23:38 Cloudy 68 20 64 18 88 88 ENE 5 7 30.21 1023 10 16 0.00 0.00
11:53 pm 23:53 Cloudy 67 19.4 64 17.8 91 91 E 6 9 30.24 1024 10 16 0.00 0.03

Powered by AerisWeather